Location: ??? ?????
(36.1829°N, 43.5402°E)
Time: 02:58:42
(UTC+00:00)

Daily predictions for brighter satellites

Satellite Brightness Start Highest point End
(mag) Time Altitude Azimuth Time Altitude Azimuth Time Altitude Azimuth
SeaSat 1 4.3 00:02:58 10° N 00:05:48 19° NW 00:05:48 19° NW
CZ-2D R/B 3.9 00:05:25 10° N 00:08:57 57° N 00:08:57 57° N
Cosmos 2058 3.6 00:13:01 10° N 00:15:58 46° NNW 00:15:58 46° NNW
Cosmos 1455 3.8 00:16:25 25° ESE 00:17:27 30° E 00:20:45 10° NNE
BREEZE-M DEB (TANK) 3.9 00:17:50 35° SSE 00:19:00 41° SE 00:28:30 10° ENE
NOSS 3-4 (A) 3.8 00:15:01 10° NW 00:22:09 63° WSW 00:29:53 10° SSE
NOSS 3-4 (C) 3.8 00:15:06 10° NW 00:22:16 63° WSW 00:30:00 10° SSE
Cosmos 2227 Rocket 4.0 00:23:41 17° NW 00:23:49 17° NW 00:27:26 10° NNW
CZ-4B R/B 4.0 00:30:12 11° NNW 00:30:12 11° NNW 00:30:24 10° NNW
Cosmos 2227 4.1 00:26:57 45° SSW 00:28:46 84° ESE 00:34:24 10° NNE
IDEFIX/ARIANE 42P 3.7 00:24:09 10° NNE 00:29:05 41° E 00:33:32 12° SSE
Meteor 1-28 Rocket 3.5 00:30:50 40° SE 00:31:58 64° ENE 00:35:38 10° N
Cosmos 2016 Rocket 4.4 00:29:29 10° NNW 00:35:02 37° W 00:35:20 37° W
Cosmos 2297 Rocket 4.3 00:39:26 12° WNW 00:40:13 12° NW 00:42:20 10° NNW
Cosmos 2233 Rocket 3.9 00:39:08 10° NNW 00:45:13 67° W 00:50:15 15° S
Cosmos-2242 3.8 00:47:04 34° WNW 00:47:04 34° WNW 00:50:43 10° NNW
Cosmos 1408 3.7 00:49:39 10° N 00:53:04 42° E 00:56:29 10° SSE
CZ-2C R/B 4.3 00:50:09 10° NE 00:54:01 26° E 00:57:55 10° SSE
H-2A R/B 2.5 00:51:42 10° NNE 00:55:55 78° E 00:58:28 22° S
Cosmos 1238 Rocket 2.6 00:54:26 10° N 00:57:27 65° E 01:00:49 10° SSE
PSLV R/B 4.0 00:53:52 10° SSE 00:58:03 80° ENE 01:02:17 10° N
H-II Stage 2 3.2 00:59:01 17° SSE 00:59:25 17° SSE 01:02:15 10° ESE
Cosmos 371 Rocket 3.7 00:58:40 33° WSW 01:00:15 44° WNW 01:04:55 10° N
Cosmos 1943 4.0 00:56:52 10° NNW 01:02:28 54° ENE 01:08:00 10° SE
Cosmos 1892 2.9 01:02:25 10° NNW 01:06:07 47° W 01:07:52 27° SSW
ATLAS 2AS CENTAUR R/B 4.3 01:01:58 10° WNW 01:04:03 15° W 01:04:03 15° W
Cosmos 2285 Rocket 4.1 01:00:32 10° NNW 01:06:57 82° ENE 01:13:23 10° SSE
Cosmos 1603 3.7 01:02:06 10° NNW 01:07:45 85° ENE 01:13:25 10° SSE
Cosmos 2084 Rocket 3.5 01:05:26 27° SSW 01:07:51 87° WNW 01:12:21 10° NNE
Cosmos 2151 3.6 01:08:49 10° NNW 01:12:37 34° W 01:14:12 25° SW
Cosmos 1408 Rocket 3.7 01:10:15 10° NNW 01:14:35 50° W 01:18:52 10° SSW
PAYLOAD A 4.4 01:10:38 10° NNE 01:15:49 63° E 01:20:46 10° S
SL-16 R/B 3.3 01:11:54 10° NW 01:15:59 21° W 01:16:21 21° WSW
ATLAS CENTAUR R/B 4.2 01:12:26 10° SSE 01:16:00 20° ESE 01:19:37 10° ENE
SL-8 R/B 3.8 01:13:36 25° WSW 01:16:23 67° NW 01:21:13 10° NE
Cosmos 921 Rocket 3.4 01:14:03 10° S 01:18:12 62° ESE 01:22:26 10° NNE
ATLAS 5 CENTAUR R/B 2.9 01:16:31 10° S 01:18:32 20° SE 01:20:13 10° ENE
RESURS DK-1 2.9 01:17:28 10° NNW 01:21:35 63° ENE 01:25:39 10° SSE
Meteor 2-20 Rocket 4.4 01:17:13 10° SSW 01:23:21 76° W 01:29:32 10° N
Cosmos 1743 Rocket 3.5 01:19:08 10° N 01:23:36 85° W 01:28:04 10° S
Cosmos 1486 Rocket 3.9 01:20:33 10° NNW 01:25:47 82° WSW 01:31:00 10° SSE
Cosmos 1340 Rocket 3.8 01:22:58 10° S 01:26:54 50° E 01:30:52 10° NNE
ADEOS II 4.1 01:28:03 10° NW 01:28:39 10° WNW 01:29:16 10° WNW
Meteor 1-31 Rocket 3.4 01:25:05 10° NNE 01:28:58 59° E 01:32:51 10° S
CZ-4B R/B 3.4 01:25:06 10° NNE 01:29:07 63° E 01:33:18 10° S
ADEOS 4.3 01:27:20 10° N 01:32:02 35° WNW 01:36:09 13° SW
CZ-4B R/B 4.1 01:32:37 10° NNE 01:36:52 75° ESE 01:40:52 10° S
Cosmos 304 Rocket 4.2 01:35:11 12° SW 01:39:20 43° WNW 01:43:56 10° N
Cosmos 2263 Rocket 3.0 01:36:59 13° WSW 01:41:23 35° WNW 01:46:35 10° N
Cosmos 1503 Rocket 4.2 01:39:25 10° NNW 01:44:46 79° ENE 01:50:00 10° SSE
Helios 1A Rocket 4.5 01:41:53 10° NNE 01:45:39 37° E 01:49:24 10° SSE
Transit 2A Rocket 4.5 01:44:37 10° NNW 01:49:07 81° WSW 01:53:24 10° SSE
PSLV R/B 4.3 01:45:43 10° NNE 01:49:48 68° E 01:53:53 10° S
Okean O Rocket 3.7 01:47:49 10° NE 01:51:43 30° E 01:55:36 10° SSE
Cosmos 1455 4.1 01:51:22 10° WSW 01:53:09 13° WNW 01:55:01 10° NW
Cosmos 1818 3.8 01:47:50 10° SSW 01:53:15 75° ESE 01:58:43 10° NNE
Meteor 2-3 Rocket 3.8 01:56:36 10° NNW 02:02:03 56° W 02:07:28 10° S
